Home   Weather   Oklahoma City   Past weeks

Flag for USA Past Weather in Oklahoma City, Oklahoma, USA — Yesterday and Last 2 Weeks

Now
62 °F

Partly cloudy.


Feels Like: 62 °F
Forecast: 53 / 81 °F
Wind: 5 mph from Northwest

Location: Will Rogers World Airport

Current Time: Sep 26, 2016 at 10:49:52 PM

Latest Report: Sep 26, 2016 at 9:52 PM


Visibility: 10 mi

Pressure: 30.18 "Hg

Humidity: 56%

Dew Point: 46 °F

Location of Oklahoma CityLocation

Past Weather in Oklahoma City — Graph

°F

Oklahoma City Temperature Yesterday

Maximum temperature yesterday: 74 °F (at 11:52 AM)
Minimum temperature yesterday: 64 °F (at 8:52 PM)
Average temperature yesterday: 68 °F

High & Low Weather Summary for the Past Weeks

 TemperatureHumidityPressure
High95 °F (Sep 19, 2:52 PM)100% (Sep 20, 7:52 AM)30.28 "Hg (Sep 20, 7:52 AM)
Low59 °F (Sep 26, 7:52 AM)22% (Sep 26, 4:52 PM)29.83 "Hg (Sep 24, 4:52 PM)
Average75 °F75%29.99 "Hg
* Reported Sep 11 9:52 PM — Sep 26 9:52 PM, Oklahoma City, Weather by CustomWeather, © 2016

Note: Actual official high and low records may vary slightly from our data, if they occured in-between our weather recording intervals... More about our weather records

Advertising

Oklahoma City Weather History for the Previous 24 Hours

Scroll right to see more
 ConditionsComfort  
Time TempWeatherWind HumidityBarometerVisibility
9:52 PM
Mon, Sep 26
62 °FPartly cloudy.5 mph56%30.18 "Hg10 mi
8:52 PM66 °FPartly cloudy.8 mph39%30.16 "Hg10 mi
7:52 PM68 °FPartly cloudy.8 mph33%30.16 "Hg10 mi
6:52 PM71 °FBroken clouds.9 mph28%30.14 "Hg10 mi
5:52 PM73 °FPartly sunny.14 mph23%30.15 "Hg10 mi
4:52 PM75 °FPartly sunny.15 mph22%30.16 "Hg10 mi
3:52 PM76 °FPartly sunny.15 mph24%30.17 "Hg10 mi
2:52 PM76 °FScattered clouds.15 mph24%30.19 "Hg10 mi
1:52 PM75 °FScattered clouds.18 mph24%30.22 "Hg10 mi
12:52 PM73 °FPartly sunny.16 mph25%30.24 "Hg10 mi
11:52 AM71 °FPartly sunny.16 mph32%30.26 "Hg10 mi
10:52 AM68 °FPartly sunny.9 mph45%30.28 "Hg10 mi
9:52 AM64 °FBroken clouds.12 mph54%30.27 "Hg10 mi
8:52 AM62 °FBroken clouds.8 mph58%30.26 "Hg10 mi
7:52 AM59 °FScattered clouds.9 mph67%30.23 "Hg10 mi
6:52 AM60 °FPassing clouds.12 mph69%30.22 "Hg10 mi
5:52 AM60 °FPassing clouds.10 mph72%30.21 "Hg10 mi
4:52 AM61 °FPassing clouds.12 mph78%30.20 "Hg10 mi
3:52 AM62 °FPassing clouds.12 mph78%30.20 "Hg10 mi
2:52 AM64 °FPartly cloudy.10 mph73%30.21 "Hg10 mi
1:52 AM64 °FPartly cloudy.9 mph70%30.20 "Hg10 mi
12:52 AM64 °FPassing clouds.12 mph70%30.19 "Hg10 mi
11:52 PM
Sun, Sep 25
65 °FOvercast.13 mph66%30.19 "Hg10 mi
10:52 PM65 °FMostly cloudy.14 mph66%30.19 "Hg10 mi
Weather by CustomWeather, © 2016

See weather overviewHow to use our weather pages